Terminal Aerodrome Forecast
Issued by NWS Jackson, MS

Home | Current Version | Previous Version | Text Only | Print | Product List | Glossary On
Versions: 1 2 3 4 5 6 7 8 9 10 11 12 13
000
FTUS44 KJAN 240100 AAA
TAFGWO
TAF AMD
KGWO 240122Z 2401/2424 19010KT P6SM SCT019
     FM240700 22015G24KT P6SM BKN019
     FM241400 29011G18KT P6SM SKC=

USA.gov is the U.S. government's official web portal to all federal, state and local government web resources and services.